Theta_e
320 320 320 320 320 320 320 320 320 320 320 320 321 321 321 321 321 321 321 321 320 320 320 320 320 320 320 320 320 321 320 320 320 321 321 325 333 350 351 344 341 346 335 320 326 328 322 327 333 339 337 335 336 334 342 344 346 341 330 324 320 323 323 328 327 329 334 331 335 337 339 335 331 335 338 339 336 337 335 332 335 332 332 336 338 340 341 342
320 320 320 320 320 320 320 320 320 320 320 320 320 320 321 321 321 321 320 320 320 320 320 319 320 320 320 320 320 321 320 319 319 319 319 333 346 343 345 351 344 346 336 319 322 326 325 327 332 333 331 329 340 334 341 341 345 334 330 326 322 328 330 334 335 332 331 330 337 338 339 336 334 339 337 333 331 334 331 330 329 328 333 336 337 339 340 341
320 320 320 320 319 319 320 320 320 320 320 320 320 319 320 320 320 320 320 320 320 320 320 320 319 320 320 320 321 320 320 319 322 320 327 341 346 342 346 345 344 343 319 318 321 327 329 331 331 328 328 328 335 333 339 340 341 336 328 322 325 333 334 338 339 336 336 334 336 336 338 339 339 337 339 333 331 332 327 324 326 328 329 333 335 337 338 340
320 320 320 319 319 319 319 319 319 319 320 319 320 319 319 320 320 319 320 319 319 319 319 320 319 319 320 320 321 321 320 320 317 320 327 351 345 343 343 344 347 338 319 320 324 328 333 332 329 325 324 327 333 343 336 340 334 336 331 326 329 336 332 336 341 340 337 339 339 337 338 337 338 338 338 333 328 329 328 329 328 328 330 332 335 336 338 338
320 319 319 319 319 319 319 319 319 319 319 319 319 319 319 319 319 319 319 319 319 319 319 319 319 320 320 321 320 321 319 311 319 329 332 346 346 343 342 342 348 320 317 320 323 328 332 329 326 323 322 324 330 336 337 341 339 336 332 334 336 338 334 338 340 340 337 338 335 335 334 331 337 337 336 333 327 325 328 330 332 332 333 333 333 335 337 338
319 319 319 319 319 319 319 319 319 319 319 319 318 319 319 318 318 319 319 319 319 319 319 319 319 320 320 321 321 321 315 300 315 327 344 349 346 345 344 349 347 320 317 317 322 328 329 326 324 318 318 321 326 327 339 339 341 327 335 335 338 336 335 341 341 341 338 335 336 332 334 335 333 333 334 334 331 333 334 333 334 334 334 335 335 335 336 336
319 319 319 319 319 319 319 319 319 319 319 319 319 318 318 318 318 318 318 318 318 318 319 319 319 320 320 320 320 319 315 315 320 331 348 352 350 347 345 342 341 321 317 316 321 325 326 323 322 318 318 320 326 328 336 338 340 333 328 333 335 338 336 341 340 341 339 337 336 335 339 332 331 326 335 332 332 334 335 335 335 335 335 335 334 335 335 336
319 319 319 319 319 319 319 319 319 318 319 319 318 318 318 318 318 318 318 318 318 318 319 319 320 320 320 319 319 318 317 313 332 336 346 350 344 337 335 321 318 317 317 317 322 325 325 321 319 320 317 317 327 330 336 335 333 331 330 334 337 340 340 341 342 341 339 336 340 336 331 331 334 332 332 330 332 335 335 335 335 334 334 334 334 334 335 335
319 319 319 319 319 319 319 318 318 319 318 318 318 318 318 317 317 317 317 318 318 318 319 319 320 320 321 319 315 310 311 323 337 338 343 336 332 330 321 315 316 315 317 320 324 327 324 319 320 320 315 319 326 326 336 332 326 334 333 337 338 338 338 341 341 339 341 340 338 332 330 334 335 338 331 330 333 336 335 334 333 333 332 332 332 333 334 333
319 319 319 319 318 318 319 319 318 318 318 318 318 318 317 317 316 317 317 317 318 318 319 319 320 320 319 319 316 308 317 325 328 337 331 329 323 321 315 316 315 315 317 321 325 326 322 321 318 321 321 320 328 330 336 329 329 336 335 336 335 336 336 338 338 338 339 339 338 331 328 332 334 331 323 332 334 336 333 332 333 332 331 331 333 333 333 333
319 319 319 318 318 318 318 318 319 318 318 318 318 317 317 317 316 317 317 317 318 319 319 320 320 320 318 321 315 310 321 322 323 330 330 326 321 315 314 316 316 315 319 324 324 327 326 323 322 322 321 318 331 330 330 328 336 337 337 336 337 336 336 338 338 338 339 337 335 341 331 333 333 331 326 331 334 334 331 331 331 331 330 331 332 332 334 334
319 319 318 318 318 318 318 318 318 318 318 317 317 316 316 316 316 316 317 317 318 318 319 320 320 321 321 318 313 315 322 321 322 330 332 325 320 318 316 317 317 316 320 321 322 325 327 325 323 320 316 332 322 328 326 336 337 335 337 330 332 334 331 337 336 337 341 335 341 338 332 327 329 326 332 333 334 333 331 330 330 330 330 331 332 332 334 334
319 318 318 318 318 317 318 318 318 318 317 317 316 315 316 316 316 316 316 316 317 319 320 320 320 322 321 311 316 324 320 321 321 326 327 325 322 321 318 318 319 318 321 322 321 324 326 326 323 318 320 323 327 323 327 337 336 337 335 331 326 328 327 333 337 339 338 336 338 337 316 320 327 330 332 334 333 332 329 329 329 329 330 330 331 332 333 335
319 318 318 318 318 317 318 318 317 317 316 316 315 315 315 315 315 316 316 317 319 319 320 322 322 322 320 316 324 320 320 319 323 322 326 323 321 318 318 320 322 321 324 323 323 324 325 326 323 320 322 320 322 334 327 332 335 327 332 331 323 321 318 332 335 337 334 340 339 337 317 318 328 330 332 333 333 331 327 328 328 329 330 330 330 332 332 334
318 318 318 317 317 317 317 317 317 316 316 315 315 314 314 314 315 316 317 317 319 320 322 323 323 321 317 318 327 320 334 318 319 322 326 322 322 318 318 321 321 322 323 324 323 325 325 323 320 315 315 325 329 328 322 327 330 329 322 317 323 319 322 330 333 334 328 334 341 333 320 320 326 329 332 333 332 331 329 329 329 329 329 329 330 331 331 332
318 318 318 317 317 317 317 316 316 316 316 315 314 314 315 315 317 318 318 319 321 323 324 322 324 321 315 310 315 323 315 311 316 325 327 326 324 321 322 320 320 321 324 324 326 325 323 320 315 315 316 323 326 324 319 322 320 332 321 316 317 320 322 323 330 334 336 335 336 333 320 323 323 331 332 332 332 330 329 329 329 329 329 329 329 331 332 332
317 318 317 317 317 317 317 316 315 316 315 315 313 315 316 317 319 320 320 321 322 324 324 322 326 328 314 319 322 314 312 316 326 322 321 323 323 322 320 318 317 319 323 324 324 323 321 316 318 316 317 317 326 323 315 314 317 320 323 318 320 317 319 318 327 332 335 334 327 329 322 323 328 329 330 331 331 330 328 329 329 329 329 329 330 331 330 332
317 317 317 317 317 316 316 315 315 315 315 314 313 315 317 321 322 320 321 321 324 327 325 326 324 315 311 319 311 310 317 322 322 321 320 322 321 320 318 315 316 318 320 318 321 317 319 313 315 308 313 317 322 320 311 307 315 316 318 317 316 321 322 321 320 327 331 334 328 328 326 326 327 328 329 330 333 330 328 328 329 329 329 329 330 331 330 331
317 317 317 317 316 316 316 315 315 314 314 315 315 316 318 319 321 322 321 325 321 321 317 316 316 305 301 310 318 318 320 323 323 319 318 318 321 321 319 318 317 316 312 312 313 314 316 312 312 307 307 313 317 319 316 316 319 319 321 318 318 316 317 319 325 334 332 328 326 327 323 326 329 326 328 330 330 329 329 329 329 330 329 329 330 330 329 331
317 317 317 317 316 316 315 315 314 313 313 315 323 322 322 321 320 317 323 324 320 316 312 312 316 313 312 313 313 321 325 323 318 318 320 321 319 316 316 317 315 315 311 306 310 310 314 305 303 303 308 316 318 320 320 322 322 322 324 322 320 320 321 326 327 332 335 328 326 327 327 329 329 326 327 329 329 329 328 328 328 329 329 328 330 330 330 332
317 317 317 316 316 316 315 314 313 313 312 315 319 320 314 315 306 305 311 317 324 323 317 314 314 312 312 317 319 317 313 314 320 318 320 324 319 313 311 312 310 307 309 310 308 312 311 304 304 308 311 317 319 320 321 324 322 321 321 321 318 319 319 324 326 330 333 326 323 329 327 328 330 332 329 329 327 327 328 327 329 329 329 330 331 331 333 334
317 317 316 316 315 315 314 314 313 312 311 314 319 317 317 319 318 319 316 309 315 322 319 313 314 312 316 318 320 318 316 313 314 318 322 320 316 308 309 308 307 305 309 309 309 306 303 302 306 309 315 317 320 320 320 319 321 321 322 319 318 320 322 326 325 329 332 327 322 326 325 326 328 332 332 331 327 329 330 330 330 330 330 331 331 331 334 333
317 317 316 316 316 314 314 313 312 309 315 318 316 318 317 322 324 325 320 314 312 314 311 310 309 309 313 318 318 320 313 312 310 316 318 317 315 311 310 306 305 305 307 307 304 303 300 303 308 311 314 316 318 319 317 317 320 317 318 316 317 321 318 315 323 328 330 328 322 326 322 324 330 333 331 336 328 333 336 335 333 335 331 331 332 332 332 334
317 316 316 316 316 314 314 312 310 313 315 320 318 317 323 325 324 322 317 309 309 312 311 313 312 313 311 312 317 315 313 314 314 314 322 317 314 315 312 308 305 305 303 306 306 305 303 307 311 311 312 317 315 317 315 314 313 317 320 319 318 318 319 320 320 325 326 326 329 325 321 320 325 326 329 332 334 335 334 332 332 334 336 335 336 335 334 334
316 316 316 316 315 314 311 308 312 318 322 320 318 324 326 327 327 324 315 311 311 308 315 312 315 316 316 322 320 311 314 317 315 320 321 317 315 313 311 313 308 303 304 306 307 305 306 310 311 309 310 316 315 313 313 313 309 314 316 318 320 323 320 321 324 321 319 316 325 320 309 310 322 326 328 333 334 328 331 330 329 333 334 333 334 334 336 337
316 316 315 315 315 314 308 311 319 323 321 319 322 325 326 324 325 325 316 306 300 306 312 304 314 310 319 313 316 314 317 312 317 320 321 318 322 315 312 309 310 304 305 306 305 306 307 312 312 309 310 314 314 312 314 314 310 310 313 318 322 322 322 322 321 319 311 309 318 325 309 304 319 321 326 328 327 328 329 330 329 331 334 332 333 335 334 336
315 315 314 314 314 311 314 315 324 317 315 317 323 324 324 324 333 323 311 302 297 305 307 312 313 310 315 315 316 318 301 306 318 319 317 319 314 319 309 307 309 310 310 309 305 302 308 309 311 312 312 312 312 310 314 315 311 308 317 323 322 322 322 321 319 319 316 322 325 325 323 309 309 318 328 327 325 326 324 327 328 331 332 331 333 335 335 336
315 315 314 313 313 311 316 318 317 314 316 321 324 323 324 330 329 323 308 293 290 308 304 308 311 319 316 316 317 313 311 315 308 312 316 317 316 313 309 307 307 307 309 307 297 306 308 306 310 311 312 311 310 313 316 316 311 312 319 320 322 323 323 322 320 317 318 318 309 315 321 311 309 319 327 325 321 323 324 327 327 330 331 332 332 335 335 337
314 314 313 313 311 311 314 315 319 315 320 323 323 324 324 329 321 312 303 291 302 304 316 306 320 315 314 315 312 315 313 315 308 312 316 316 317 314 306 309 310 309 310 307 302 306 309 311 313 313 312 309 313 316 317 315 310 316 324 323 324 326 324 323 318 318 316 314 307 311 317 309 309 318 319 323 322 320 322 326 327 330 331 331 331 334 336 338
314 313 313 311 311 314 313 317 317 321 323 324 324 324 324 321 314 303 297 288 306 299 308 310 309 307 313 307 309 313 311 311 314 312 314 311 313 315 314 316 311 308 306 309 307 308 310 317 320 314 312 314 315 317 317 316 316 319 324 320 321 321 320 320 319 319 314 306 310 314 317 312 304 315 317 316 318 324 324 326 328 332 332 331 332 334 335 336
312 311 311 311 314 325 325 320 325 328 326 327 324 322 320 316 305 298 291 296 305 304 309 308 306 311 308 306 305 310 309 311 311 311 309 312 310 312 313 309 313 308 306 307 306 307 311 312 311 314 316 316 316 314 317 318 317 316 314 317 316 316 319 317 315 317 307 305 313 318 316 315 303 310 321 324 331 329 326 326 328 328 330 331 332 333 334 335
310 309 310 311 316 320 316 316 322 323 328 326 322 317 313 301 306 294 293 308 297 303 303 303 307 308 308 310 307 305 307 310 312 310 307 307 307 305 307 304 306 299 300 303 301 306 306 309 312 313 318 314 313 311 312 315 314 313 312 315 309 306 308 303 307 302 304 303 312 318 317 311 308 320 323 328 330 331 331 331 329 331 331 332 332 333 334 335
309 308 308 311 314 316 321 324 325 327 328 324 319 316 308 299 292 299 299 303 297 304 302 307 306 308 308 307 305 307 309 306 310 309 311 308 307 306 309 308 309 305 299 304 303 302 304 310 310 311 313 315 313 306 306 307 311 310 308 309 308 301 301 297 302 305 307 309 316 316 319 312 316 323 331 328 332 333 333 334 334 332 332 333 332 333 334 336
308 308 313 317 315 320 325 329 328 330 324 322 317 311 309 297 295 305 301 303 301 306 306 305 305 308 306 302 305 307 302 308 306 308 309 306 306 302 306 309 310 307 306 305 301 302 297 298 306 309 306 314 312 310 311 309 309 309 312 311 309 307 301 297 301 298 300 305 312 317 309 308 309 317 331 336 337 337 336 335 341 339 335 336 334 335 336 337
307 309 315 323 322 323 324 326 327 324 323 319 312 307 299 296 300 299 301 302 305 306 304 306 304 304 303 304 307 307 307 303 307 308 307 305 302 304 304 305 310 310 308 300 304 303 301 301 308 312 312 313 310 314 315 312 309 312 311 314 309 308 313 304 308 305 306 306 306 310 309 317 318 330 330 338 341 339 340 340 336 335 340 336 333 333 333 333
312 328 322 327 327 329 330 328 327 324 321 315 308 303 298 300 298 303 301 305 306 303 304 304 304 301 301 303 305 304 308 303 307 306 306 306 305 303 308 308 307 309 306 301 303 299 303 300 309 311 313 311 311 313 313 314 301 308 309 305 310 317 314 309 308 310 311 307 304 313 312 319 324 332 331 332 333 333 335 334 334 334 336 337 336 333 333 334
328 329 318 320 322 327 329 329 328 326 321 313 306 301 304 305 306 305 308 305 305 305 304 298 300 300 298 299 301 304 304 305 306 305 301 306 302 306 305 307 311 309 309 305 303 307 298 300 308 308 306 311 314 313 313 314 313 308 305 309 316 318 316 310 301 305 303 300 303 311 307 311 313 310 326 327 325 327 330 331 336 337 336 334 333 333 333 334
325 325 323 321 323 328 328 330 326 322 316 311 305 308 307 303 308 307 308 307 307 306 302 301 301 302 299 300 299 301 303 302 303 304 302 304 299 307 306 306 310 309 310 312 305 306 307 298 304 309 308 310 313 312 308 311 313 309 310 317 308 304 303 310 307 299 298 299 301 305 309 311 313 313 321 322 322 324 325 330 332 334 337 335 332 333 334 334
328 323 317 321 327 324 326 330 325 319 312 306 309 303 306 306 309 307 309 307 308 305 302 303 300 303 303 300 301 303 304 299 303 302 300 302 299 307 306 308 307 310 311 310 307 308 308 299 301 309 308 310 309 308 300 303 310 312 313 311 315 310 307 305 307 307 304 300 300 300 307 303 315 318 321 323 325 324 324 326 330 333 335 338 334 332 331 334
316 312 312 324 324 325 331 326 317 315 309 303 306 305 308 304 308 309 309 307 305 304 304 303 305 301 303 304 304 302 303 304 302 303 303 305 302 306 305 309 306 308 310 311 308 310 303 309 297 304 309 308 302 305 302 304 302 304 305 305 308 308 314 311 311 308 304 301 301 302 300 308 316 325 324 326 327 328 326 327 331 331 333 337 339 338 334 335
323 314 314 324 325 327 325 318 311 307 307 309 308 305 307 305 307 308 308 309 308 310 306 305 304 302 302 302 302 305 302 304 303 302 303 302 303 299 307 308 309 308 310 309 307 308 304 305 300 303 303 302 304 309 308 307 307 305 304 304 306 306 305 302 302 311 308 303 298 301 299 311 319 328 328 327 329 328 329 329 328 331 335 339 340 340 338 336
314 310 314 324 325 324 317 307 308 312 308 304 304 307 304 310 306 307 308 309 307 307 310 307 307 306 304 304 303 303 303 302 303 302 303 301 304 305 306 309 309 309 307 305 305 310 309 306 302 298 302 303 306 309 311 310 310 309 307 304 307 307 309 305 297 304 308 307 308 307 304 310 324 330 330 328 329 330 328 327 327 330 334 337 340 341 343 348
313 312 322 325 325 321 312 306 312 309 306 307 310 308 308 307 306 308 306 307 307 308 307 307 306 305 306 304 304 304 304 301 303 301 303 304 305 306 308 309 310 309 309 307 309 311 314 303 300 302 306 308 311 310 310 310 310 307 308 309 307 304 306 308 307 310 307 307 304 304 303 311 325 333 330 329 331 330 333 334 333 331 334 338 339 345 344 346
315 316 318 324 325 321 310 303 305 306 306 309 307 307 308 306 306 306 305 308 306 307 306 306 306 307 306 307 306 304 305 299 303 303 302 306 304 309 309 309 310 308 308 306 305 311 303 307 302 299 299 302 304 306 306 309 308 305 305 308 308 308 308 309 311 313 305 306 307 304 299 306 324 332 331 330 329 329 329 332 335 334 337 334 339 340 341 344
316 320 319 319 321 318 306 309 307 306 306 305 306 304 305 305 307 307 306 305 308 308 306 305 306 308 307 308 306 306 306 304 301 305 305 305 304 308 308 309 310 308 310 311 319 312 305 305 304 296 295 294 294 294 297 299 301 305 307 308 310 308 308 306 302 307 299 308 308 308 305 315 324 329 328 330 330 330 331 332 335 336 336 335 338 341 343 341
314 307 311 313 314 312 311 313 310 308 306 306 304 305 305 304 306 307 305 306 306 308 308 308 309 308 307 305 304 304 304 306 303 302 303 303 305 306 309 309 309 309 313 315 316 312 305 307 306 304 301 299 300 304 308 308 305 301 304 306 307 309 309 308 306 306 302 306 306 311 312 316 320 322 324 325 328 330 330 333 333 335 338 338 339 342 340 340
316 308 309 305 312 310 309 311 308 308 305 308 304 304 302 304 304 305 307 303 307 306 307 306 306 304 305 303 303 303 304 304 306 305 303 304 306 307 309 309 309 312 320 312 316 309 307 303 306 307 306 306 307 306 308 308 305 306 305 304 307 307 308 306 303 303 316 305 302 312 318 315 317 321 322 325 326 327 331 334 334 337 337 338 339 342 344 344
307 312 314 315 306 304 305 306 309 308 308 306 306 306 304 304 303 303 307 306 307 307 303 307 307 306 306 304 304 301 303 303 304 302 304 305 305 307 305 308 307 315 315 309 311 308 305 302 306 306 305 306 308 308 309 308 308 307 307 306 305 306 306 305 305 307 309 306 303 314 317 315 315 320 323 326 326 327 330 333 336 339 341 339 336 337 339 341
318 318 315 318 308 310 310 310 311 309 308 306 307 306 303 302 303 305 304 305 306 306 306 302 303 306 306 307 305 303 305 301 302 305 304 305 304 304 303 305 307 310 309 308 310 313 307 302 305 306 305 305 306 307 308 306 307 307 307 306 307 306 305 306 307 308 308 310 311 311 315 315 317 322 325 325 328 330 331 336 336 333 334 336 337 339 340 341
317 316 315 319 314 311 311 311 310 308 306 308 304 304 305 305 303 305 306 302 303 304 304 303 304 306 306 306 307 303 306 306 305 304 307 305 305 305 304 305 304 308 309 307 308 311 306 303 306 305 303 303 306 307 307 306 306 305 306 308 309 309 308 308 307 308 309 309 310 309 317 318 322 326 328 329 332 333 334 335 335 333 334 333 332 334 335 339
320 324 324 315 312 311 312 311 308 307 306 306 303 305 305 306 305 306 304 306 305 304 306 304 305 306 306 307 304 306 307 309 308 307 308 307 303 307 304 305 308 305 307 307 307 307 307 304 307 305 301 302 305 305 305 306 306 305 306 308 309 308 307 312 309 313 312 311 311 318 314 317 325 330 330 331 331 331 331 332 335 333 335 333 332 332 333 337
325 327 329 322 312 316 310 311 310 307 304 307 306 306 304 305 307 305 304 308 307 307 307 307 306 305 305 305 305 307 308 309 309 310 310 310 310 309 310 309 308 306 306 305 308 304 307 305 303 303 299 300 304 306 305 305 303 301 303 306 308 309 311 314 316 317 316 318 313 312 312 320 326 330 327 329 329 330 330 332 333 334 337 334 333 335 336 337
Wind_Speed
12 12 12 12 11 11 10 10 10 10 10 11 11 11 11 11 11 11 11 11 12 11 11 11 12 12 13 13 13 14 14 12 14 12 13 18 12 7 5 12 11 9 7 8 10 11 13 12 13 12 9 7 7 8 4 5 3 2 1 2 4 1 1 4 4 6 5 12 12 10 10 13 11 7 6 13 10 10 11 12 10 15 14 19 20 20 20 18
13 13 12 12 11 11 11 10 10 10 10 10 11 11 11 12 11 11 11 11 12 12 11 11 12 12 13 12 14 14 13 12 14 15 20 12 16 10 6 8 9 8 9 11 13 13 13 12 12 10 10 9 6 4 6 2 3 2 1 1 3 2 2 5 4 5 6 7 13 10 11 12 13 10 9 9 12 10 10 11 16 17 21 21 20 20 19 18
14 14 13 13 12 12 11 11 11 10 10 10 11 11 11 12 11 11 12 12 11 11 12 11 12 12 12 13 13 14 13 13 13 19 19 21 9 12 9 9 9 10 12 13 13 13 13 10 10 10 9 9 7 4 2 4 5 4 3 3 3 1 5 5 3 4 4 2 8 11 11 9 12 10 8 11 13 12 13 14 18 21 22 21 21 20 19 17
14 13 13 13 13 13 13 12 12 11 10 10 10 11 11 11 12 12 12 12 12 11 11 12 11 11 12 13 12 12 11 13 10 3 10 9 13 12 11 11 10 11 13 14 13 13 11 11 9 11 9 9 5 9 5 6 3 2 1 4 2 1 3 3 3 3 2 12 10 10 7 11 10 8 8 12 13 11 12 15 20 22 22 22 21 20 18 17
14 14 14 14 13 13 13 13 13 12 12 11 10 11 11 12 12 12 12 11 11 11 11 11 11 12 11 12 12 10 10 8 6 9 9 11 11 12 11 11 11 12 15 14 14 14 12 12 10 10 9 8 8 9 8 10 5 5 1 3 3 1 2 1 3 5 8 5 6 13 11 12 10 9 10 11 10 9 12 16 19 21 22 22 21 19 18 17
14 14 14 14 14 14 14 13 13 12 12 12 11 11 11 11 12 12 13 12 12 11 11 11 11 12 12 11 11 9 6 1 5 7 8 7 10 11 11 9 11 13 13 14 13 13 12 12 12 10 8 9 7 8 6 5 3 3 3 2 3 1 1 1 2 4 8 3 13 12 9 11 12 10 11 8 6 8 13 17 19 20 21 20 19 18 18 17
15 15 14 14 14 15 14 14 13 13 12 12 12 11 11 11 11 12 12 12 12 12 12 11 11 12 12 13 11 9 8 11 11 8 9 8 9 11 10 9 9 11 13 13 14 12 12 12 11 11 9 9 11 10 10 6 2 5 2 2 3 2 2 2 3 7 4 2 8 7 8 9 13 14 10 7 10 12 15 18 19 20 20 20 19 17 18 16
15 15 15 14 14 14 15 14 14 14 13 13 12 12 11 12 12 12 12 12 12 12 11 11 11 11 11 10 7 8 9 9 9 8 9 10 11 12 11 10 11 11 13 15 13 13 11 13 12 9 11 9 2 5 8 5 6 6 3 7 4 3 3 5 5 7 4 2 14 5 9 9 7 8 10 9 14 15 17 18 19 20 19 18 18 18 17 16
15 15 15 15 15 14 14 14 14 14 13 13 13 12 12 12 12 12 12 12 12 11 11 11 10 10 9 7 7 9 8 2 11 11 12 11 12 12 13 9 12 13 12 14 14 12 11 10 13 11 9 11 5 8 12 11 6 8 7 7 4 2 7 5 8 4 6 3 4 5 8 7 7 10 9 12 17 16 18 19 19 19 19 18 17 17 16 15
16 16 16 15 14 14 15 15 14 13 13 13 13 12 12 12 11 12 12 12 12 12 11 10 11 10 9 6 8 8 2 6 4 9 9 9 13 13 14 10 14 13 13 13 13 14 13 8 11 10 13 13 4 4 12 9 1 8 6 7 6 4 7 4 5 4 3 1 3 6 12 10 9 9 9 13 16 18 18 19 19 18 18 17 16 15 14 15
16 16 16 16 15 15 15 14 14 14 14 13 13 13 13 13 12 11 12 12 12 11 11 10 9 9 7 8 7 8 5 10 3 0 2 10 11 12 12 11 13 13 14 12 13 13 12 13 8 7 8 8 4 7 8 5 12 9 9 5 12 8 3 3 7 5 5 2 4 6 10 10 8 6 9 15 16 18 19 19 19 18 16 15 17 15 13 13
16 17 17 16 16 16 15 15 14 14 13 14 14 14 13 13 12 12 12 12 12 11 11 10 9 6 8 9 10 10 5 7 4 2 6 7 9 10 11 11 12 13 13 12 11 11 12 12 11 9 6 4 9 3 7 16 9 10 8 6 7 10 5 4 6 6 4 3 2 4 10 9 8 9 13 15 16 18 19 19 18 17 16 16 15 14 12 12
17 17 17 17 17 17 16 15 15 14 14 14 14 13 13 13 13 13 12 13 11 11 9 9 8 6 7 8 12 16 1 7 1 3 6 7 8 8 9 11 12 13 13 12 9 9 11 11 11 11 10 9 5 4 6 12 10 9 6 7 5 3 6 5 3 3 5 3 2 2 8 8 9 12 14 14 17 18 18 17 17 15 15 15 14 13 13 12
17 17 18 17 17 17 16 15 15 15 15 14 14 14 13 13 13 13 12 12 13 13 11 9 7 7 7 10 8 4 5 7 2 6 7 8 10 10 10 11 10 11 11 13 11 7 10 8 11 11 11 11 8 6 8 9 6 4 6 2 1 5 5 4 3 5 6 2 2 2 2 8 9 13 15 15 17 18 17 17 16 16 15 14 14 13 13 13
17 18 18 18 17 17 16 16 15 15 15 14 13 15 14 13 12 11 11 11 13 13 11 9 8 6 7 7 11 7 6 6 9 8 8 10 10 9 11 10 10 11 11 10 9 7 7 11 9 10 8 9 11 8 11 7 3 7 3 0 2 3 5 7 5 5 5 2 1 3 2 5 13 14 15 14 17 18 16 17 17 16 15 15 13 14 13 12
16 16 17 18 17 17 16 16 15 14 14 14 13 13 13 12 11 10 11 11 12 10 8 8 9 9 9 11 3 2 6 9 10 9 6 8 8 8 8 10 9 10 9 9 7 5 6 5 8 7 10 10 10 8 8 5 3 5 4 3 3 4 6 4 4 5 3 8 4 3 4 3 6 13 14 15 16 17 16 16 16 17 17 15 13 12 12 13
16 15 15 17 17 16 16 15 16 14 13 14 14 14 13 12 10 10 9 11 9 8 7 6 4 9 6 4 4 9 6 10 5 7 7 9 7 8 9 9 8 10 9 7 9 5 7 7 4 7 10 11 8 9 9 7 6 4 3 3 4 6 6 5 4 5 5 5 4 4 6 5 5 15 14 15 17 17 16 16 17 16 14 14 13 13 13 12
14 14 15 16 16 17 16 15 16 15 13 12 12 13 10 8 9 10 10 9 7 7 8 9 8 8 12 14 10 10 7 7 6 6 9 7 11 8 8 9 9 10 8 8 8 7 7 8 7 8 8 10 11 10 9 8 5 4 4 3 3 4 10 7 9 7 7 4 9 6 5 6 6 10 13 13 13 15 15 15 16 16 16 14 13 13 14 12
18 16 15 15 15 16 17 16 16 15 15 16 15 14 16 16 8 8 7 5 5 5 5 7 7 4 9 7 3 4 6 7 4 5 8 8 5 6 8 8 8 9 9 9 8 11 8 8 8 9 11 10 10 11 10 1 5 5 6 6 5 3 6 9 7 11 11 8 7 6 6 6 6 11 13 13 16 14 14 15 14 14 15 14 13 13 13 12
19 18 16 14 14 16 17 17 15 13 13 11 6 6 6 5 5 4 8 9 11 10 11 3 11 10 9 8 6 8 10 4 7 9 5 6 5 9 10 10 9 10 9 9 9 13 8 9 10 10 11 10 10 11 11 3 3 6 7 7 5 5 3 4 7 10 9 8 5 5 5 5 6 11 13 13 16 13 14 14 13 14 13 14 13 13 13 13
16 16 16 14 13 14 17 17 14 12 11 8 9 7 7 11 11 5 2 10 16 13 11 9 9 12 10 7 6 5 7 7 9 7 9 6 10 8 10 9 10 10 10 11 10 9 10 10 11 12 13 12 10 11 10 8 3 5 4 4 3 5 2 2 5 11 9 4 5 6 6 6 6 3 5 11 13 15 16 15 14 15 14 13 14 14 14 13
16 16 15 13 13 11 15 14 13 13 11 6 7 8 10 12 9 8 9 10 6 17 13 6 5 10 4 12 4 2 6 7 10 9 6 9 9 10 11 10 11 10 10 12 10 9 10 11 11 14 13 14 10 8 12 9 9 3 4 4 5 3 4 2 5 2 3 0 7 10 7 3 2 4 2 6 6 13 14 15 14 14 15 12 14 14 14 13
18 16 15 14 13 12 11 13 11 7 5 5 7 12 12 12 9 8 8 10 12 3 5 4 7 6 7 5 7 7 10 9 9 9 10 10 9 12 10 10 10 10 11 13 11 9 10 10 14 13 13 13 10 12 14 10 10 5 6 4 4 7 9 3 5 10 3 0 5 6 5 3 2 3 5 3 1 6 7 10 13 11 14 13 15 14 14 14
17 17 15 14 13 11 12 10 12 7 8 13 12 13 12 8 8 8 10 9 7 7 8 8 9 7 6 8 9 10 12 8 7 12 9 9 9 8 9 10 11 10 11 13 14 10 9 8 12 15 15 9 11 15 13 11 8 6 7 5 9 12 7 2 8 8 7 4 5 6 5 3 3 1 4 3 6 1 11 11 15 12 10 11 14 14 15 15
16 17 18 15 13 13 9 11 6 9 10 12 14 14 13 7 5 8 11 9 10 6 2 7 7 7 5 0 5 10 11 6 7 8 10 11 11 7 9 7 9 10 12 13 13 12 11 12 10 15 14 8 13 13 11 10 6 6 7 10 9 12 8 6 12 10 3 2 5 12 4 5 5 6 5 3 1 3 8 14 15 14 12 12 14 15 15 14
16 16 18 16 15 12 9 5 6 8 9 11 10 8 7 6 7 7 8 7 3 8 3 7 2 2 2 7 6 9 6 8 7 8 9 11 11 9 3 7 7 8 13 10 12 8 9 10 13 15 13 11 13 8 10 8 7 7 8 9 11 6 12 13 10 8 8 6 10 6 4 3 1 6 4 4 4 2 7 15 17 15 12 14 13 13 14 15
15 15 17 14 13 8 6 5 10 15 12 2 2 4 5 4 6 9 6 6 4 5 5 8 6 6 5 7 8 6 8 2 5 8 9 10 13 8 11 6 9 9 8 7 5 9 11 13 11 9 10 11 11 7 12 14 8 6 9 16 13 12 12 14 11 4 2 3 7 7 1 4 3 5 4 6 6 5 12 16 17 15 14 15 14 15 14 15
17 15 12 11 9 4 6 10 13 12 12 10 6 8 7 5 4 5 3 5 8 6 5 6 4 4 6 9 10 5 12 12 7 9 7 11 13 9 12 8 8 11 9 7 9 5 14 13 9 10 10 12 9 9 12 11 4 3 14 14 13 10 14 12 7 5 5 7 8 8 3 2 4 2 6 8 6 7 12 13 17 16 16 15 16 15 15 15
15 14 13 11 11 10 9 6 8 11 10 11 9 9 8 5 8 6 6 6 4 3 4 3 1 6 5 7 9 10 9 9 9 10 8 9 12 10 11 9 12 10 10 9 9 6 7 7 10 10 9 7 5 12 16 7 8 8 23 14 10 9 9 9 7 4 5 3 6 10 9 2 4 5 7 9 7 9 10 15 17 17 16 16 15 16 16 13
15 14 13 11 11 7 6 7 10 15 12 10 9 10 9 8 8 4 6 3 2 3 6 5 5 5 7 7 8 8 7 8 4 8 8 9 13 13 13 14 12 8 12 10 13 10 5 16 9 6 8 10 11 14 14 12 13 11 18 16 10 10 5 3 2 1 5 2 2 11 14 8 4 7 10 10 9 11 11 12 14 14 16 16 16 16 15 15
16 13 9 5 5 4 4 7 11 15 15 9 10 11 8 5 4 6 8 8 7 8 6 6 6 2 9 7 4 7 2 8 5 6 9 8 11 11 8 10 8 9 8 7 10 10 4 6 7 6 6 5 10 12 16 13 8 9 8 11 13 6 3 3 2 2 2 2 5 8 13 12 7 5 7 9 6 11 14 15 15 18 17 16 14 15 15 16
15 12 10 8 7 9 6 9 9 11 7 9 10 8 5 5 2 6 5 8 6 3 6 5 1 3 3 5 5 4 8 8 4 8 8 7 8 10 10 10 7 8 9 8 9 7 10 11 8 9 3 13 10 14 13 9 6 9 6 11 5 3 2 3 3 3 4 1 5 9 13 9 11 2 10 14 11 13 14 11 15 16 17 16 15 16 14 13
16 12 11 13 10 7 12 15 13 9 9 9 8 8 2 1 7 1 5 4 5 10 6 9 6 9 5 6 5 6 3 6 7 8 9 9 8 9 11 14 10 10 5 9 9 11 9 9 8 7 7 12 14 10 9 7 4 6 7 8 7 2 0 2 4 2 2 5 5 5 4 3 2 1 10 13 14 13 14 12 12 15 17 16 15 15 14 12
15 11 7 8 11 12 10 10 9 9 9 8 8 7 6 5 4 1 9 8 6 2 8 7 3 5 3 7 6 7 6 3 3 5 9 5 9 10 10 13 9 9 7 6 10 12 10 11 13 11 9 11 13 13 8 8 12 12 12 8 7 8 3 1 4 3 2 3 1 4 5 3 2 1 2 9 9 8 7 7 3 5 12 15 16 12 13 13
22 12 10 7 9 13 17 15 12 12 9 8 7 7 6 5 6 6 5 6 7 7 1 10 8 4 5 5 8 9 4 6 9 7 7 7 8 7 8 9 11 8 7 7 8 8 14 9 8 18 9 15 14 12 13 11 9 12 11 9 9 8 11 4 1 1 3 3 2 3 3 2 1 2 2 3 8 5 6 5 9 5 7 15 15 13 14 15
14 3 8 5 7 10 13 10 11 11 8 7 8 5 9 6 5 8 5 4 8 10 9 3 7 7 3 3 6 9 10 10 6 6 6 6 4 6 10 10 11 13 6 7 7 8 9 10 9 18 12 16 16 14 13 8 6 3 12 10 7 6 7 2 2 5 13 5 3 3 2 1 2 3 1 6 9 6 3 3 6 8 7 5 8 11 13 14
4 7 4 9 12 13 9 10 7 6 7 8 7 5 8 4 6 13 7 10 8 8 11 4 3 5 4 4 4 8 8 5 1 4 2 2 4 3 5 6 8 1 5 10 3 9 10 9 10 13 10 11 13 14 14 13 10 4 7 5 8 4 0 3 3 4 5 3 1 4 4 2 3 0 4 6 9 4 3 5 5 6 6 7 7 7 13 14
8 7 9 10 11 6 4 5 6 6 7 9 6 13 7 9 4 8 5 10 7 4 8 2 2 3 3 3 1 4 5 5 5 4 3 6 2 9 7 1 5 11 5 7 5 3 7 7 12 12 6 9 9 11 13 14 14 9 4 8 5 6 9 7 4 6 4 1 5 4 8 2 6 3 5 10 14 11 7 5 4 6 7 9 9 10 11 14
6 8 8 10 5 4 5 3 6 6 8 8 5 11 4 4 3 5 3 6 6 7 7 5 9 4 7 3 4 2 4 2 2 2 3 2 2 7 9 4 8 8 7 10 7 5 7 7 3 8 8 11 10 7 9 10 11 14 10 7 7 6 6 5 6 3 5 2 5 3 4 4 5 3 8 8 13 17 12 10 10 8 7 8 10 13 15 14
6 7 9 9 7 5 3 5 6 8 8 8 6 6 5 11 7 4 8 7 5 4 4 11 5 4 4 5 5 5 1 6 7 5 4 4 7 6 12 5 8 10 9 7 9 7 10 5 5 8 6 7 10 9 10 9 11 11 10 8 6 6 2 3 4 6 5 3 3 7 3 3 4 3 6 9 11 16 18 14 10 11 13 10 8 7 11 13
8 8 3 10 8 5 5 6 8 8 7 6 7 12 1 6 8 2 2 3 8 8 9 7 2 4 2 1 5 5 3 5 4 2 5 2 6 3 3 4 4 2 6 5 8 7 7 7 7 5 8 7 5 11 12 11 11 10 11 10 8 7 7 6 5 6 8 5 1 1 3 2 2 1 5 7 10 13 15 16 13 13 11 9 7 7 10 11
7 7 2 6 9 6 6 8 7 5 6 7 7 4 6 7 11 5 9 0 4 3 6 6 6 4 3 6 7 3 2 7 2 7 8 5 6 6 6 5 7 9 7 7 7 3 5 7 8 9 8 2 10 12 13 14 11 12 12 12 12 8 4 3 4 2 3 6 6 6 7 3 6 4 3 7 8 11 15 17 15 13 14 14 10 9 3 4
7 9 10 7 8 8 7 8 4 7 7 2 3 8 4 8 10 7 5 7 6 8 5 4 3 7 3 6 4 9 0 4 5 2 7 1 7 8 5 7 3 9 8 5 8 9 6 7 7 9 9 12 11 8 11 11 11 9 7 7 9 12 7 6 6 4 5 2 4 2 4 3 4 4 3 4 6 10 10 13 12 13 15 14 12 4 2 3
8 10 4 3 3 7 9 7 4 6 5 2 7 7 7 8 5 8 6 6 5 3 5 4 2 4 4 2 5 7 5 2 5 7 7 7 2 2 4 7 2 8 7 9 7 7 7 2 7 6 6 8 7 7 7 10 10 8 7 11 10 7 10 10 8 3 5 4 6 5 4 4 1 1 4 4 7 8 11 12 13 13 9 14 12 6 5 2
9 8 9 7 6 7 9 5 5 6 4 7 8 7 8 6 2 8 8 6 5 5 3 1 4 3 4 6 4 1 7 3 4 6 5 0 8 6 9 11 3 6 11 10 8 6 6 6 4 8 7 6 6 5 7 10 12 10 10 9 6 9 10 7 8 7 5 3 5 1 7 8 5 2 3 5 6 8 6 6 11 10 13 13 10 8 6 1
6 7 5 7 6 6 8 8 9 7 4 6 7 3 6 4 6 3 3 6 2 6 2 5 2 4 3 1 3 3 3 7 5 4 8 4 0 4 6 5 2 7 8 5 8 4 6 6 7 7 8 7 7 10 10 6 5 8 4 8 11 10 11 10 7 7 9 6 2 4 6 9 8 3 2 2 3 3 9 11 8 10 12 12 10 9 9 7
7 7 4 5 4 6 9 5 6 6 5 2 4 2 8 2 4 4 3 6 8 8 3 2 5 5 4 2 4 4 3 8 6 1 8 2 4 6 5 10 3 3 3 4 5 4 5 6 7 10 10 10 9 11 12 11 12 10 13 12 12 12 6 8 8 6 9 1 5 1 2 9 7 8 5 7 6 5 4 7 9 8 9 10 10 9 10 11
6 7 10 7 4 3 7 6 8 7 1 4 0 3 10 2 4 1 6 3 9 7 7 6 7 4 4 5 6 4 3 3 1 8 5 4 4 1 8 7 7 12 11 7 7 6 3 6 8 9 11 10 9 12 8 9 11 13 9 8 12 14 13 13 16 12 3 3 6 8 6 10 10 13 14 11 8 7 5 5 6 5 4 10 11 9 11 13
6 7 8 7 8 5 4 4 9 4 4 6 1 5 4 5 3 2 7 4 5 6 5 3 2 4 4 3 2 4 3 3 7 2 5 6 3 7 6 2 6 10 12 7 2 6 2 6 10 12 12 10 11 12 11 13 12 12 7 6 11 14 13 9 11 7 10 7 7 7 8 12 8 11 8 11 13 10 7 5 8 9 5 6 9 11 10 12
5 6 7 8 11 7 6 4 5 6 5 3 3 3 7 4 3 3 7 6 5 6 4 4 0 3 5 6 2 4 3 4 8 5 3 4 5 2 5 8 7 7 7 8 5 9 4 3 6 10 8 10 15 16 13 10 12 12 5 16 20 11 2 4 4 6 13 15 10 4 16 12 7 8 9 9 7 9 8 8 8 10 9 7 7 5 5 6
8 7 6 7 8 7 5 8 6 6 4 3 6 1 7 2 2 6 8 3 7 7 6 7 3 2 3 3 1 3 3 6 6 2 6 7 3 5 4 2 4 6 7 5 5 5 1 5 3 6 7 7 12 12 12 15 13 1 16 15 11 12 8 13 12 13 16 18 9 18 11 9 6 6 8 8 7 8 7 7 8 8 10 10 8 8 8 6
8 9 9 6 7 6 9 6 6 6 5 2 4 5 8 3 4 4 4 2 1 4 6 8 7 7 5 4 3 7 6 4 6 6 8 8 2 9 7 4 5 6 5 7 6 6 4 5 5 5 8 8 11 7 9 10 9 4 9 11 10 9 7 8 11 16 17 14 15 11 8 5 6 3 7 6 8 6 6 5 4 8 11 15 14 13 11 7
Wind_Direction
344 343 341 341 338 336 334 330 330 327 324 324 320 316 316 315 311 311 313 310 310 308 308 305 307 306 305 306 307 306 308 296 296 274 237 242 263 65 69 110 136 160 175 208 228 223 208 214 222 226 228 230 220 237 163 120 85 188 285 342 307 328 174 254 253 135 296 149 148 172 190 140 130 152 160 153 136 125 142 135 138 135 131 121 125 130 133 133
342 340 339 337 337 337 333 332 329 327 323 320 320 314 312 312 312 310 309 309 308 307 307 306 305 305 307 306 306 310 309 292 283 271 248 244 224 217 134 131 141 155 184 212 217 215 215 211 219 207 227 232 201 210 160 71 152 217 5 134 298 203 229 251 289 105 204 155 151 176 168 150 137 173 159 142 131 146 138 132 147 127 113 122 130 133 135 137
342 341 339 338 337 335 334 331 331 327 325 321 317 314 310 310 310 309 307 307 306 307 304 304 304 306 305 305 307 305 296 294 275 260 258 228 163 152 144 147 171 171 200 207 216 222 220 218 210 210 218 247 210 139 197 155 209 188 147 220 214 5 302 274 291 56 283 222 161 179 151 149 142 153 162 146 144 154 145 146 127 123 130 134 135 138 138 140
344 341 339 338 335 334 333 332 329 328 324 322 317 313 310 308 307 307 305 304 303 303 303 299 303 306 304 305 309 307 289 285 267 113 67 100 142 150 154 154 180 191 214 228 228 227 229 240 220 216 226 232 217 114 212 170 207 109 188 283 21 164 321 315 327 77 227 247 173 153 161 146 157 137 158 151 146 154 143 140 135 137 138 138 139 140 141 142
345 342 339 336 334 332 331 331 329 328 325 323 318 314 310 308 307 305 303 300 301 298 299 301 300 302 304 303 306 293 295 279 90 87 102 127 154 164 164 168 175 207 212 225 242 249 235 236 230 222 239 235 231 166 202 177 235 259 74 300 298 230 254 5 356 59 65 282 267 152 162 150 149 142 154 169 149 148 143 137 137 139 140 142 143 143 143 145
346 343 338 335 332 331 329 328 328 325 323 320 320 314 312 309 305 305 303 301 298 298 296 298 301 302 302 309 296 279 276 297 70 123 148 161 165 173 170 164 183 214 214 227 235 239 231 230 239 228 219 244 238 245 66 69 132 241 102 287 241 321 265 57 57 58 104 268 227 146 155 147 148 147 156 166 146 134 137 135 139 139 140 141 141 144 145 145
345 343 340 335 333 330 330 328 326 323 321 319 318 315 310 307 303 301 302 299 296 296 295 298 300 303 308 298 271 263 254 270 313 128 135 168 161 156 160 175 179 217 218 220 229 238 219 232 226 232 235 236 236 228 131 169 190 225 188 236 206 168 276 213 61 73 75 286 243 137 137 143 148 151 154 159 160 145 132 135 137 139 139 140 144 147 144 146
346 342 340 336 333 330 329 327 324 322 320 318 316 314 311 307 304 302 299 296 294 293 296 296 300 302 314 297 266 234 228 263 106 130 155 148 159 152 162 184 189 204 218 219 217 228 220 228 226 230 242 252 61 336 107 49 241 208 126 242 166 158 170 114 82 66 69 50 321 178 148 136 139 125 157 154 141 136 133 136 141 141 141 144 145 145 144 143
345 343 340 336 333 331 328 326 323 321 320 317 314 311 310 305 304 300 297 296 293 293 294 297 296 299 301 288 278 292 263 189 101 136 155 157 147 158 170 176 192 199 214 219 227 230 227 220 238 234 236 224 263 247 142 171 206 209 189 172 137 177 135 67 92 117 97 82 304 243 143 133 136 162 149 147 129 136 134 138 143 143 145 145 144 143 145 148
344 343 340 336 334 331 327 324 323 319 318 315 312 308 307 304 300 298 294 293 292 293 295 295 290 297 284 265 274 265 70 311 106 147 155 156 148 156 184 191 181 203 212 218 224 232 225 227 231 225 248 286 285 281 268 228 142 175 162 132 170 154 105 212 147 108 31 70 92 246 159 145 164 174 132 133 133 134 142 144 142 148 146 145 139 143 149 148
343 342 340 338 334 331 328 324 322 320 318 316 313 310 306 302 298 295 293 290 291 292 292 291 302 298 272 255 270 265 63 282 8 171 154 147 168 169 186 201 185 203 217 218 226 229 229 245 234 246 246 267 303 233 238 230 131 141 125 139 137 119 107 185 104 108 165 113 126 289 150 157 156 169 145 135 139 145 144 145 150 148 146 142 141 144 151 143
341 342 341 337 336 332 329 327 323 321 317 315 311 307 303 299 296 293 290 289 290 286 282 281 280 274 272 272 255 249 23 321 300 329 154 182 185 192 194 200 192 208 214 227 222 224 241 236 253 258 274 96 243 273 252 121 118 117 115 86 65 110 119 210 137 166 222 81 38 319 152 154 169 163 145 140 146 150 147 147 150 148 144 141 143 146 149 146
341 341 340 338 334 333 330 327 324 321 318 313 312 306 301 297 292 288 285 286 272 267 268 274 269 247 280 277 242 237 269 269 301 326 232 195 200 194 200 207 201 210 225 240 227 225 229 246 251 272 258 264 281 268 30 101 114 117 105 119 123 123 122 151 186 126 85 41 50 251 163 173 160 160 147 149 153 151 148 152 152 149 146 144 145 154 146 148
340 340 339 338 335 333 331 327 324 321 317 314 309 306 300 292 286 281 279 271 276 276 277 266 262 261 262 264 302 25 310 271 258 219 219 202 208 186 199 205 206 209 229 246 258 230 233 237 266 266 285 271 250 304 274 134 157 78 71 65 198 161 170 183 177 154 90 21 63 9 122 158 157 165 153 160 154 157 153 155 151 150 147 147 149 151 150 146
339 339 339 338 335 331 330 327 323 320 317 313 309 304 294 284 276 275 272 266 258 259 265 269 238 254 229 257 247 88 12 282 240 217 203 198 212 178 199 197 214 210 222 240 250 256 227 232 231 250 250 251 270 274 263 156 151 116 112 58 239 226 148 155 174 228 142 156 304 163 80 143 179 164 160 161 160 157 158 155 152 153 150 150 153 153 151 153
338 337 336 337 334 331 329 327 323 319 315 312 310 301 291 281 277 263 260 262 279 284 254 252 224 232 296 282 75 106 203 215 211 205 182 227 209 214 193 200 202 209 221 220 250 236 248 275 233 234 246 251 244 233 246 132 199 139 180 129 249 227 156 159 241 162 139 120 60 276 151 90 272 168 168 160 163 162 160 158 156 153 155 151 159 156 152 158
336 333 335 334 333 330 328 326 322 318 314 310 308 283 267 269 267 262 262 260 257 231 233 264 284 202 269 47 298 241 214 220 138 197 181 224 203 214 187 175 199 203 210 228 227 260 199 223 224 254 257 266 229 228 250 218 176 195 166 247 107 201 159 174 140 253 174 139 125 91 123 220 259 173 175 163 169 164 165 161 160 156 155 156 161 156 156 163
333 333 333 332 330 330 328 325 322 316 315 308 293 291 290 273 266 267 252 244 240 233 229 249 265 293 236 261 262 225 206 129 188 172 213 167 226 169 191 196 180 209 182 209 210 239 181 214 208 238 223 225 236 226 232 235 206 170 191 190 164 165 183 153 173 187 175 169 134 124 99 184 276 208 172 166 169 167 169 165 158 162 156 159 166 154 157 168
333 334 331 331 328 329 328 325 321 320 314 306 283 279 267 264 258 235 258 197 212 193 218 182 205 235 30 161 31 96 205 117 207 165 179 194 204 172 202 206 191 187 193 213 172 221 186 224 200 235 231 209 218 228 239 314 320 123 168 161 151 187 203 182 175 138 163 144 140 155 160 185 241 206 171 175 167 175 171 170 161 163 159 163 164 157 163 166
331 331 332 327 327 325 328 326 322 321 327 307 253 234 224 227 180 198 211 229 232 269 306 167 206 261 237 213 185 63 58 131 199 217 149 224 175 190 197 206 180 207 207 207 175 207 191 211 213 213 225 225 213 233 238 238 300 90 143 153 155 192 150 180 171 151 157 129 168 149 145 179 216 193 183 178 165 173 178 171 169 164 163 169 164 158 167 162
325 329 328 324 322 325 324 325 320 313 320 294 288 280 288 338 354 15 320 232 218 244 257 277 238 270 334 50 95 214 219 189 234 177 214 145 219 171 182 201 187 205 211 216 211 171 217 221 222 220 222 235 225 222 227 119 203 141 132 124 141 94 198 113 150 156 185 156 187 168 166 203 212 281 190 186 172 178 182 171 179 167 170 171 162 162 164 164
326 325 324 322 321 320 323 321 320 309 292 271 274 264 286 313 9 312 314 307 274 209 238 240 293 266 211 268 26 209 226 185 214 178 177 196 170 214 146 217 192 206 199 218 221 177 213 226 225 226 221 232 227 243 252 190 123 123 157 120 110 84 73 37 139 148 154 141 167 178 179 195 248 271 290 349 224 185 186 176 177 171 176 168 160 168 157 165
325 324 320 323 320 319 328 315 315 325 274 214 235 249 264 299 310 346 302 297 287 175 272 216 229 237 211 220 246 194 218 201 194 181 171 221 180 226 158 213 197 218 200 209 219 195 213 223 232 231 228 226 219 214 225 219 128 151 131 188 136 178 161 154 172 168 171 204 176 166 146 175 320 274 316 5 101 332 299 179 179 178 178 169 165 168 164 165
321 321 323 320 319 324 319 318 298 261 233 228 245 264 290 287 309 329 315 291 298 214 232 163 253 208 197 232 173 224 232 182 232 172 151 212 222 193 233 205 214 217 215 200 227 223 222 226 210 229 240 213 231 241 214 215 146 190 167 171 148 182 194 167 163 144 120 3 138 134 118 179 228 188 258 305 341 35 308 217 184 179 177 181 161 170 172 165
320 320 323 320 320 322 325 316 270 229 227 225 241 255 256 296 329 343 306 290 245 203 326 122 273 238 151 242 152 218 207 217 241 161 161 209 218 184 239 189 244 209 230 196 223 243 228 230 195 215 228 198 234 237 209 224 185 168 208 212 175 170 140 189 127 141 134 127 206 159 122 206 179 215 208 46 32 281 268 252 182 187 176 177 176 170 174 163
319 319 323 320 317 328 320 296 235 269 229 238 265 209 250 335 6 330 301 292 290 102 212 174 213 117 47 208 147 235 258 232 194 165 168 206 244 247 175 237 219 209 219 217 212 235 250 207 221 202 208 214 215 240 254 214 248 199 194 228 122 114 132 125 151 138 169 181 180 219 162 175 327 209 185 166 194 233 326 252 191 184 182 176 184 172 176 166
319 319 321 318 317 331 283 278 352 314 288 42 343 350 337 331 51 318 302 255 239 73 210 100 187 92 250 146 199 192 226 53 128 124 199 180 226 211 259 210 184 265 246 231 196 215 239 245 218 230 189 215 211 216 246 243 215 239 106 113 123 139 136 145 150 181 109 88 134 195 215 127 180 230 176 161 174 189 221 235 193 181 187 177 183 180 174 170
317 313 315 315 303 265 285 322 314 307 305 348 345 355 315 52 321 268 345 286 67 212 156 137 37 120 250 154 228 202 122 232 212 146 232 169 232 201 236 245 212 210 220 218 225 186 220 227 205 188 227 208 204 235 239 238 240 203 131 139 127 148 137 147 150 144 144 148 154 201 198 95 180 177 151 164 180 214 227 233 192 182 185 182 185 179 175 174
315 313 312 312 304 262 261 258 300 282 291 320 336 332 339 330 277 299 277 300 76 263 349 111 148 201 207 141 220 235 168 211 255 126 211 176 212 254 202 224 260 215 233 206 236 197 214 272 173 234 203 223 223 235 250 190 217 60 105 101 103 93 113 133 124 141 143 174 166 196 194 173 176 159 166 183 201 204 223 229 200 181 186 183 187 178 177 171
313 312 315 311 292 229 221 228 240 248 276 304 326 318 299 274 260 204 281 203 42 130 240 63 215 157 173 169 206 230 211 175 246 129 198 201 188 232 272 311 290 238 226 202 240 247 230 188 107 215 218 201 205 251 257 232 113 118 108 109 95 86 83 91 84 301 145 249 196 192 187 207 190 196 182 175 204 193 181 210 203 185 185 186 190 178 176 170
312 306 300 306 262 338 281 244 230 238 238 270 317 307 303 297 299 331 279 46 239 78 245 155 131 215 185 202 193 183 118 251 163 205 182 210 197 211 240 210 252 240 230 228 231 232 247 246 170 161 268 262 238 232 243 237 193 187 152 111 97 69 65 77 113 178 217 200 169 181 189 203 229 180 208 199 185 203 204 194 200 186 193 186 190 180 181 175
307 298 279 247 276 325 255 258 351 334 354 321 304 292 279 284 248 243 335 143 268 144 178 83 44 216 194 227 226 197 196 187 189 200 198 196 190 198 201 243 173 215 203 205 212 226 211 221 172 173 234 276 240 248 225 174 192 217 152 112 118 108 244 165 184 205 230 197 213 174 186 194 225 157 176 187 194 198 206 199 191 193 187 186 192 183 181 175
306 294 264 245 253 242 248 257 285 304 306 296 293 266 115 302 282 184 322 299 80 316 81 271 147 189 151 236 171 190 219 229 131 222 218 184 223 192 203 238 184 235 225 183 225 180 220 202 200 233 189 221 256 244 217 195 186 210 230 178 123 109 272 235 199 201 165 83 59 153 172 214 337 327 160 181 200 199 197 193 194 192 189 187 191 189 176 172
299 292 275 202 205 229 259 274 278 296 302 300 271 262 235 262 300 103 291 360 61 257 259 180 290 139 161 245 165 185 185 106 230 196 213 194 216 183 206 234 208 219 261 210 230 195 213 184 208 194 203 184 230 256 232 195 184 200 222 226 183 150 138 245 282 230 179 130 148 98 157 231 244 112 228 185 181 201 223 210 124 264 207 186 192 192 170 169
306 278 229 243 222 240 239 247 255 264 275 278 273 290 300 292 320 350 354 345 27 296 25 49 267 103 180 244 106 234 309 176 222 234 202 231 203 225 195 201 216 222 197 259 200 246 218 245 194 179 197 171 213 232 269 299 309 186 213 196 213 209 161 207 155 62 125 135 110 199 242 282 279 231 247 173 157 129 162 176 145 225 265 188 192 193 175 176
302 177 178 219 215 236 213 222 234 242 255 269 274 308 296 321 309 309 53 308 272 302 94 115 261 218 319 168 125 264 150 299 142 228 192 222 225 236 215 188 196 235 249 228 21 238 227 215 216 169 184 173 192 209 234 245 234 40 189 204 215 163 213 131 161 139 171 198 155 181 49 153 223 214 233 145 147 144 148 132 141 206 269 228 211 186 177 180
259 153 201 231 234 240 198 199 217 224 244 263 289 264 255 303 21 305 50 319 357 343 298 325 333 301 166 220 266 212 133 246 182 227 188 187 200 229 270 290 306 245 253 25 233 279 315 268 182 151 195 167 188 200 226 218 260 270 270 220 189 189 356 243 231 208 201 183 79 197 151 206 220 28 152 144 126 200 192 157 171 182 234 239 225 211 176 181
310 253 247 246 228 192 159 213 233 246 260 264 280 275 287 276 86 325 6 304 290 134 290 40 144 274 314 331 345 126 107 277 97 206 233 186 20 342 305 262 215 276 307 136 264 284 277 254 136 167 172 170 180 194 204 234 224 256 290 37 300 179 209 178 235 229 234 212 133 197 145 150 254 244 182 179 153 189 187 178 166 189 213 228 220 231 189 181
272 278 248 224 157 208 189 180 239 260 265 259 237 261 270 290 129 345 355 306 248 340 318 355 295 163 323 156 252 106 58 223 178 202 31 161 188 170 252 240 200 262 282 286 255 296 257 298 188 155 194 173 180 181 219 200 215 236 279 246 204 251 211 208 243 312 297 112 153 7 238 233 208 242 200 189 169 168 182 181 188 185 221 221 207 215 195 181
244 237 256 163 167 159 130 210 249 249 257 277 302 293 345 312 329 54 333 351 4 327 43 308 37 326 223 14 239 78 139 104 222 122 262 183 169 145 247 201 294 184 261 245 285 282 290 186 268 138 257 226 187 178 226 203 193 200 220 248 249 235 354 232 211 246 245 233 248 133 166 265 228 222 221 188 180 169 171 175 182 184 205 228 238 220 209 178
280 268 260 137 173 136 181 234 241 239 253 272 265 280 214 353 327 169 9 134 324 124 318 330 298 303 28 326 266 84 221 102 3 139 171 294 312 226 192 7 287 293 143 272 254 280 289 195 241 144 183 220 232 173 228 224 205 202 204 221 235 221 206 198 230 212 230 238 306 197 123 254 273 153 228 201 178 171 173 171 178 193 200 215 237 247 215 172
278 262 156 156 117 207 225 244 236 259 260 250 294 322 44 290 276 288 341 3 318 295 109 316 12 336 287 352 12 312 293 119 59 289 120 247 86 293 74 312 272 304 302 217 242 254 304 338 324 301 306 256 209 192 196 241 225 214 197 211 211 248 182 243 268 236 274 276 288 124 129 233 256 239 195 201 165 174 173 175 184 191 193 194 202 232 300 345
244 253 101 232 142 228 224 259 275 259 245 294 48 258 276 233 276 37 321 58 323 14 331 354 21 318 48 332 199 284 7 158 147 141 22 63 96 45 50 282 300 261 245 322 259 17 347 260 295 284 279 277 249 169 171 225 256 257 239 253 206 215 221 202 218 273 296 26 278 194 124 190 214 160 180 176 180 180 169 171 180 187 188 185 189 172 3 331
294 307 296 193 163 231 248 240 247 278 294 326 275 298 125 330 327 14 322 60 325 34 19 323 95 327 358 232 339 343 48 337 258 128 240 169 127 0 115 277 199 274 259 47 325 16 294 213 255 295 285 279 194 153 188 180 220 253 242 198 226 238 219 231 202 173 257 293 319 57 43 317 136 162 127 168 195 187 185 181 188 186 185 186 167 151 182 338
301 270 248 164 208 227 236 209 259 294 304 274 277 246 222 206 316 324 312 8 297 9 328 53 310 329 306 358 356 55 192 302 261 58 337 283 100 251 140 306 307 336 29 23 350 320 295 301 246 241 247 227 160 197 185 183 198 211 237 293 192 240 251 220 225 179 220 149 278 147 146 166 231 108 161 167 164 167 196 212 194 187 185 187 162 150 117 65
253 276 231 176 181 208 245 285 288 262 248 282 264 318 311 186 120 157 254 255 89 282 152 336 46 278 338 206 282 354 319 58 275 76 273 79 247 210 39 258 205 353 35 7 314 281 281 311 283 295 296 315 340 280 281 282 155 232 221 241 273 219 220 246 270 224 191 155 234 50 134 149 143 133 182 288 163 237 163 176 191 185 179 172 157 140 148 165
306 278 306 288 197 196 264 239 230 215 248 296 286 318 245 52 68 148 44 316 90 318 109 298 7 316 23 341 303 242 7 348 17 72 243 97 349 49 144 281 255 82 146 240 234 289 284 276 270 262 263 273 294 304 315 303 298 263 211 215 233 273 240 237 252 274 55 70 87 45 85 132 165 165 183 193 238 225 229 166 178 169 171 165 141 140 142 143
246 287 311 21 318 275 223 187 255 259 137 179 194 227 267 238 251 153 189 110 260 148 333 99 281 87 306 66 19 330 44 265 137 2 6 21 307 232 234 193 247 147 195 221 185 247 345 289 282 266 259 253 243 267 273 272 263 283 233 219 216 218 254 238 214 226 124 214 152 171 162 139 166 156 175 168 202 230 214 196 149 89 105 133 135 151 171 158
288 324 299 336 243 231 299 334 291 282 267 248 259 222 292 307 259 86 345 31 1 46 315 6 282 342 44 87 326 18 59 329 337 36 301 345 299 344 344 317 297 9 328 313 89 65 335 264 290 304 274 248 224 221 247 254 252 274 246 183 231 214 213 251 323 335 283 185 190 175 118 112 113 147 151 147 165 193 197 192 124 125 164 117 141 171 168 174
337 341 328 318 299 298 302 283 265 270 260 97 256 215 282 257 68 241 177 316 3 89 199 237 61 85 22 22 135 212 118 120 212 267 172 260 282 254 308 340 342 309 300 326 324 100 318 311 304 283 295 284 282 236 202 255 275 253 3 24 360 334 246 14 310 279 262 251 203 116 108 97 101 123 134 135 129 125 145 150 138 152 145 150 171 184 192 206
329 315 323 305 297 281 267 256 229 230 244 136 239 140 269 88 257 37 67 322 352 15 1 58 35 32 357 110 129 100 180 160 226 271 233 211 330 50 319 323 3 283 277 292 280 18 275 285 214 263 271 277 273 257 221 222 235 195 46 23 346 348 359 38 16 11 13 7 0 96 76 84 73 56 102 119 132 142 142 138 151 144 148 152 171 191 210 216
338 337 326 301 279 292 279 255 258 253 228 267 333 171 252 177 55 204 179 88 248 335 360 353 34 318 117 274 45 28 19 339 340 3 1 337 17 236 187 258 247 307 332 296 6 280 309 306 290 273 266 254 294 258 218 223 237 189 45 22 359 324 359 37 36 26 28 39 45 52 80 51 69 99 106 116 115 128 142 154 167 151 151 166 172 194 181 150